Regional Weather Roundup
Issued by NWS

Home | Current Version | Previous Version | Graphics & Text | Print | Product List | Glossary On
Versions: 1 2 3 4 5 6 7 8 9 10 11 12 13 14 15 16 17 18 19 20 21 22 23 24 25 26 27 28 29 30 31 32 33 34 35 36 37 38 39 40 41 42 43 44 45 46 47 48 49 50
000
ASUS45 KTFX 010710
RWRMT
MONTANA REGIONAL WEATHER ROUNDUP
NATIONAL WEATHER SERVICE GREAT FALLS MT
100 AM MDT SAT AUG 01 2015

NOTE: "FAIR" INDICATES FEW OR NO CLOUDS BELOW 12000 FEET WITH NO
SIGNIFICANT WEATHER AND/OR OBSTRUCTIONS TO VISIBILITY.

MTZ001>007-043-010800-
WEST OF THE DIVIDE

CITY           SKY/WX    TMP DP  RH WIND       PRES   REMARKS
KALISPELL      SUNNY     56  40  55 CALM      30.01S
MISSOULA       CLEAR     67  36  31 CALM      30.08R
BUTTE          CLEAR     54  37  52 E6        30.27S
MULLAN PASS    CLEAR     72  20  14 W7        30.26S
DEER LODGE       N/A     54  39  58 W5        30.23S
EUREKA           N/A     64  36  34 CALM      29.99S
HAMILTON         N/A     68  32  26 S8        30.11S
LIBBY            N/A     61  36  39 SE5       30.01R
PLAINS           N/A     63  44  49 CALM      30.03R
RONAN            N/A     58  39  49 CALM      30.08S
$$

MTZ008-052>055-010800-
SOUTHWEST MONTANA

CITY           SKY/WX    TMP DP  RH WIND       PRES   REMARKS
BOZEMAN        CLEAR     58  43  57 S10       30.18S
DILLON         CLEAR     55  37  50 S7        30.23S
W YELLOWSTONE  CLEAR     43  39  87 CALM      30.36S
THREE FORKS      N/A     55  55 100 CALM      30.15R
TWIN BRIDGES     N/A     54  39  56 E5        30.19R
$$

MTZ009-010-012-014-046-048-049-054-010800-
EAST SLOPES AND CENTRAL MONTANA

CITY           SKY/WX    TMP DP  RH WIND       PRES   REMARKS
CUT BANK       CLEAR     61  33  35 W9        30.05S
GREAT FALLS    CLEAR     68  35  29 S13       30.05S
MALMSTROM AFB  CLEAR     63  39  41 S7        30.04S
HELENA         CLEAR     67  35  30 CALM      30.13R
$$

MTZ011-013-016-021-045-047-050-051-010800-
NORTH CENTRAL MONTANA

CITY           SKY/WX    TMP DP  RH WIND       PRES   REMARKS
HAVRE          CLEAR     66  43  43 VRB3      29.97F
LEWISTOWN      CLEAR     60  43  53 E8        30.11F
CHINOOK          N/A     59  52  77 CALM      29.97F
FORT BENTON      N/A     63  43  48 CALM      30.00F
$$

MTZ017>020-022>027-061-062-010800-
NORTHEAST MONTANA

CITY           SKY/WX    TMP DP  RH WIND       PRES   REMARKS
GLASGOW        CLEAR     66  49  54 E13       29.98F
JORDAN           N/A     60  45  57 W6        30.02F
SIDNEY         CLEAR    N/A N/A N/A N6        29.98F
WOLF POINT     CLEAR     64  50  60 E7        30.00R
MALTA            N/A     58  50  75 CALM      29.96S
PLENTYWOOD       N/A     64  48  55 E5        30.04F
POPLAR           N/A     64  52  63 N7        30.00S
$$

MTZ028>42-056>058-010800-
SOUTHCENTRAL AND SOUTHEAST MONTANA

CITY           SKY/WX    TMP DP  RH WIND       PRES   REMARKS
BAKER          CLEAR     64  46  52 E5        30.03S
BILLINGS       PTCLDY    73  38  27 SW7       30.12S
LIVINGSTON     CLEAR     54  37  52 CALM      30.19S
MILES CITY     CLEAR     67  42  40 NW10      30.01S
FORSYTH          N/A     73  41  31 SW5       30.03S
LAUREL           N/A     66  33  29 NW3       30.10S
ROUNDUP          N/A     68  38  33 CALM      30.01S
$$

REGIONAL REPORTS...DAKOTAS

CITY           SKY/WX    TMP DP  RH WIND       PRES   REMARKS
WILLISTON      CLEAR     65  53  65 NE5       30.02F
MINOT          CLEAR     63  51  65 W3        30.02R
DICKINSON      CLEAR     59  51  75 E9        30.02F
CROSBY         FAIR      54  54 100 SW5       30.04F
BISMARCK       MOCLDY    64  58  80 NE9       30.04S
GRAND FORKS    CLEAR     58  52  80 W7        29.96F
FARGO          CLEAR     59  55  87 CALM      29.99F
BUFFALO SD       N/A     69  48  47 S10       29.99F
RAPID CITY     CLEAR     67  54  63 S6        30.11F
$$

REGIONAL REPORTS...WYOMING/IDAHO/WASHINGTON

CITY           SKY/WX    TMP DP  RH WIND       PRES   REMARKS
GILLETTE         N/A     70  49  47 S14       30.13F
SHERIDAN       PTCLDY    60  46  59 S3        30.12S
BUFFALO WY     CLEAR     66  39  37 W8        30.19F
CODY           CLEAR     70  27  19 S5        30.23S
YELLOWSTONE LA   N/A     45  31  58 NW3       30.46F
IDAHO FALLS    CLEAR     56  44  64 CALM      30.20R
SALMON         PTCLDY    57  39  51 CALM      30.16R
BOISE          CLEAR     78  36  21 SE8       30.00S
SPOKANE        PTCLDY    76  23  14 SW9       29.97S
$$

REGIONAL REPORTS...ALBERTA

CITY           SKY/WX    TMP DP  RH WIND       PRES   REMARKS
EDMONTON       CLEAR     57  50  77 N6        29.96F
CALGARY        PTCLDY    63  45  51 VRB3      30.01S
LETHBRIDGE     CLEAR     59  43  55 W8        29.98R
MEDICINE HAT   CLEAR     61  45  55 W6        29.92F
WATERTON GATE    N/A     52  43  71 SW7         N/A
CARDSTON         N/A     66  34  30 SW12        N/A
ONEFOUR          N/A     66  39  37 S2          N/A
$$

REGIONAL REPORTS...SASKATCHEWAN

CITY           SKY/WX    TMP DP  RH WIND       PRES   REMARKS
SWIFT CURRENT  CLEAR     61  54  77 SE13      30.00F
REGINA         CLEAR     54  52  94 S6        30.02F
SASKATOON      MOCLDY    63  54  72 S10       29.94F
CYPRESS HILLS    N/A     64  43  45 SE6         N/A
VAL MARIE        N/A     61  54  77 NE5         N/A
ROCKGLEN         N/A     59  50  72 SE8         N/A
ASSINIBOIA       N/A     57  55  94 N1          N/A
$$



USA.gov is the U.S. government's official web portal to all federal, state and local government web resources and services.